Location: Haram ta Haram Freeway
(35.0583°N, 51.4202°E)
Time: 02:13:20
(UTC+03:30)

IRIDIUM 33 DEB - Pass Details

Date: 30 November 2021
Orbit: 663 x 816 km, 86.4° (Epoch: 21 January)

Event Time Altitude Azimuth Distance (km) Brightness Sun altitude
Rises 20:02:08 0° 210° (SSW) 3,336 ? -38.2°
Reaches altitude 10° 20:04:52 10° 222° (SW) 2,410 ? -38.8°
Enters shadow 20:07:45 23° 250° (WSW) 1,672 ? -39.4°
